EHI
0 0 0 0 0 0 0 0 0 0 0 0 0 0 0 0 0 0 0 0 0 1 2 4 6 7 6 4 4 5 10 13 13 10 7 5 4 3 2 2 2 1 0 1 1 1 0 0 0
0 0 0 0 0 0 0 0 0 0 0 0 0 0 0 0 0 0 0 0 1 2 3 4 6 7 8 7 5 5 8 11 13 11 7 4 3 3 4 4 4 2 1 2 2 2 1 0 0
0 0 0 0 0 0 0 0 0 0 0 0 0 0 0 0 0 0 0 1 2 3 3 4 6 7 9 9 7 5 6 8 10 9 7 4 3 4 5 6 6 4 3 3 4 3 1 0 0
0 0 0 0 0 0 0 0 0 0 0 0 0 0 0 0 0 0 0 1 2 3 3 4 6 7 8 9 8 6 6 7 7 7 6 4 4 4 4 6 6 4 3 3 4 3 1 0 0
0 0 0 0 0 0 0 0 0 0 0 0 0 0 0 0 0 0 0 0 1 1 3 4 6 7 7 9 8 7 7 6 5 5 5 4 3 3 3 5 6 4 2 3 3 2 1 0 0
0 0 0 0 0 0 0 0 0 0 0 0 0 0 0 0 0 0 0 1 1 2 3 4 6 7 7 8 7 6 6 5 4 4 4 3 3 3 3 4 4 2 1 1 2 2 1 0 1
0 0 0 0 0 0 0 0 0 0 0 0 0 0 0 0 0 1 1 2 4 5 5 4 5 6 7 7 5 4 4 3 3 3 3 1 1 2 2 3 3 1 0 0 1 1 0 1 2
0 0 0 0 0 0 0 0 0 0 0 0 0 0 0 0 0 1 2 4 5 6 5 4 4 5 6 5 3 1 1 2 3 3 2 1 0 1 1 1 1 1 1 0 0 0 0 1 2
0 0 0 0 0 0 0 0 0 0 0 0 0 0 0 0 0 0 1 3 5 5 4 3 3 5 5 4 1 0 0 1 1 2 1 0 0 0 0 0 0 0 0 0 0 0 0 0 1
0 0 0 0 0 0 0 0 0 0 0 0 0 0 0 0 0 0 0 2 3 3 2 1 3 3 3 1 0 0 0 0 0 1 1 0 0 0 0 0 0 0 0 0 0 0 0 0 0
0 0 0 0 0 0 0 0 0 0 0 0 0 0 0 0 0 0 0 0 1 1 0 1 2 2 1 0 0 0 0 0 0 0 1 0 0 0 0 0 0 0 0 0 0 0 0 0 0
0 0 0 0 0 0 0 0 0 0 0 0 0 0 0 0 0 0 0 0 0 0 0 1 1 1 0 0 0 0 0 0 0 0 0 0 0 0 0 0 0 0 0 0 0 0 0 0 0
0 0 0 0 0 0 0 0 0 0 0 0 0 0 0 0 0 0 0 0 0 0 0 0 0 0 0 0 0 0 0 0 0 0 0 0 0 0 0 0 0 0 0 0 0 0 0 0 0
0 0 0 0 0 0 0 0 0 0 0 0 0 0 0 0 0 0 0 0 0 0 0 0 0 0 0 0 0 0 0 0 0 0 0 0 0 0 0 0 0 0 0 0 0 0 0 0 0
0 0 0 0 0 0 0 0 0 0 0 0 0 0 0 0 0 0 0 0 0 0 0 0 0 0 0 0 0 0 0 0 0 0 0 0 0 0 0 0 0 0 0 0 0 0 0 0 0
0 0 0 0 0 0 0 0 0 0 0 0 0 0 0 0 0 0 0 0 0 0 0 0 0 0 0 0 0 0 0 0 0 0 0 0 0 0 0 0 0 0 0 0 0 0 0 0 0
0 0 0 0 0 0 0 0 0 0 0 0 0 0 0 0 0 0 0 0 0 0 0 0 0 0 0 0 0 0 0 0 0 0 0 0 0 0 0 0 0 0 0 0 0 0 0 0 0
0 0 0 0 0 0 0 0 0 0 0 0 0 0 0 0 0 0 0 0 0 0 0 0 0 0 0 0 0 0 0 0 0 0 0 0 0 0 0 0 0 0 0 0 0 0 0 0 0
0 0 0 0 0 0 0 0 0 0 0 0 0 0 0 0 0 0 0 0 0 0 0 0 0 0 0 0 0 0 0 0 0 0 0 0 0 0 0 0 0 0 0 0 0 0 0 0 0
0 0 0 0 0 0 0 0 0 0 0 0 0 0 0 0 0 0 0 0 0 0 0 0 0 0 0 0 0 0 0 0 0 0 0 0 0 0 0 0 0 0 0 0 0 0 0 0 0
0 0 0 0 0 0 0 0 0 0 0 0 0 0 0 0 0 0 0 0 0 0 0 0 0 0 0 0 0 0 0 0 0 0 0 0 0 0 0 0 0 0 0 0 0 0 0 0 0
0 0 0 0 0 0 0 0 0 0 0 0 0 0 0 0 0 0 0 0 0 0 0 0 0 0 0 0 0 0 0 0 0 0 0 0 0 0 0 0 0 0 0 0 0 0 0 0 0
0 0 0 0 0 0 0 0 0 0 0 0 0 0 0 0 0 0 0 0 0 0 0 0 0 0 0 0 0 0 0 0 0 0 0 0 0 0 0 0 0 0 0 0 0 0 0 0 0
0 0 0 0 0 0 0 0 0 0 0 0 0 0 0 0 0 0 0 0 0 0 0 0 0 0 0 0 0 0 0 0 0 0 0 0 0 0 0 0 0 0 0 0 0 0 0 0 0
0 0 0 0 0 0 0 0 0 0 0 0 0 0 0 0 0 0 0 0 0 0 0 0 0 0 0 0 0 0 0 0 0 0 0 0 0 0 0 0 0 0 0 0 0 0 0 0 0
0 0 0 0 0 0 0 0 0 0 0 0 0 0 0 0 0 0 0 0 0 0 0 0 0 0 0 0 0 0 0 0 0 0 0 0 0 0 0 0 0 0 0 0 0 0 0 0 0
0 0 0 0 0 0 0 0 0 0 0 0 0 0 0 0 0 0 0 0 0 0 0 0 0 0 0 0 0 0 0 0 0 0 0 0 0 0 0 0 0 0 0 0 0 0 0 0 0
0 0 0 0 0 0 0 0 0 0 0 0 0 0 0 0 0 0 0 0 0 0 0 0 0 0 0 0 0 0 0 0 0 0 0 0 0 0 0 0 0 0 0 0 0 0 0 0 0
0 0 0 0 0 0 0 0 0 0 0 0 0 0 0 0 0 0 0 0 0 0 0 0 0 0 0 0 0 0 0 0 0 0 0 0 0 0 0 0 0 0 0 0 0 0 0 0 0
0 0 0 0 0 0 0 0 0 0 0 0 0 0 0 0 0 0 0 0 0 0 0 0 0 0 0 0 0 0 0 0 0 0 0 0 0 0 0 0 0 0 0 0 0 0 0 0 0
Wind_Speed
7 4 3 5 8 6 1 3 2 2 2 1 1 1 3 3 3 2 2 1 1 1 1 1 1 3 3 3 3 4 4 4 4 5 5 6 7 9 9 9 9 9 9 9 10 10 10 11 11
2 3 6 7 6 2 3 3 2 3 2 1 1 1 2 0 1 1 2 3 1 1 1 1 2 3 4 3 3 4 4 4 4 4 5 5 6 7 8 9 9 9 8 9 10 10 10 10 10
3 5 6 6 4 4 3 2 3 3 2 1 1 1 1 1 2 2 3 3 1 0 0 1 1 3 3 3 3 3 4 4 3 3 4 5 6 6 8 9 9 9 8 9 10 10 10 10 10
4 6 7 6 1 3 2 2 2 2 2 2 1 1 1 1 1 2 2 2 2 1 1 1 1 1 2 3 3 3 4 4 4 3 4 5 5 6 7 7 8 9 9 9 10 10 11 10 10
5 6 6 2 2 2 2 2 1 0 2 2 1 0 2 2 2 2 2 1 1 2 2 1 1 0 1 2 2 3 4 4 4 4 4 5 5 6 6 7 7 8 9 9 10 10 11 11 10
6 6 5 1 3 3 2 2 0 1 1 2 1 0 2 2 2 2 2 2 1 1 1 1 1 1 0 1 2 2 4 4 4 4 3 4 5 5 6 7 7 8 9 9 9 10 10 10 11
5 5 3 2 2 3 2 1 1 0 1 2 1 1 3 3 2 1 2 2 2 1 1 1 1 1 1 1 1 2 2 4 4 4 3 3 3 4 5 6 7 8 8 8 9 9 10 10 10
5 6 2 1 2 3 2 1 0 1 2 2 2 2 3 4 2 2 2 2 2 2 1 1 2 1 1 0 1 2 2 3 3 3 3 3 2 3 4 5 6 7 7 8 8 8 9 10 10
4 5 2 4 4 3 1 0 1 1 1 1 1 3 3 2 1 2 2 2 3 3 2 1 1 1 1 1 1 1 1 2 2 2 3 3 1 2 2 4 5 6 7 7 7 8 9 9 9
5 3 4 3 3 2 1 1 1 1 1 2 3 4 2 1 0 0 1 2 3 3 2 1 1 1 1 1 1 1 1 0 1 1 2 1 1 1 2 4 5 6 6 7 7 8 8 7 4
3 4 2 2 2 1 1 1 1 2 4 6 6 5 3 3 3 3 3 3 4 3 3 2 2 1 1 0 0 0 1 0 1 2 2 2 1 2 2 2 3 3 4 4 5 5 3 3 3
2 2 2 2 1 1 2 2 2 4 8 5 6 5 3 4 5 5 5 5 4 3 4 3 2 1 1 1 0 1 0 0 0 1 2 2 1 2 2 2 2 2 2 3 3 3 3 4 4
1 1 1 2 2 2 2 3 4 7 8 5 4 4 5 5 6 5 5 5 4 4 4 3 2 2 2 1 1 1 1 1 0 1 2 3 2 2 2 2 2 2 2 3 3 4 4 4 4
1 1 3 3 3 2 2 4 3 9 5 3 3 5 6 6 6 5 4 5 5 5 4 3 3 3 2 2 2 2 1 1 0 1 1 2 2 3 3 3 3 3 3 3 3 4 4 3 3
1 2 5 3 2 2 0 5 5 7 2 3 4 5 5 5 4 5 5 4 5 4 3 3 3 2 2 2 2 2 2 1 1 0 1 2 2 3 3 3 3 3 3 4 3 4 4 4 4
2 2 4 4 1 1 2 7 6 3 1 5 5 5 5 5 4 4 4 4 3 3 3 3 2 2 2 2 2 2 2 2 1 0 1 1 2 2 3 3 3 3 3 3 4 4 3 3 3
2 1 3 5 2 1 2 8 7 2 2 5 6 6 5 5 5 4 3 2 2 2 2 2 2 2 2 1 2 2 2 2 1 1 1 1 2 2 2 3 3 4 4 3 4 3 3 4 3
3 3 3 5 3 1 4 10 10 4 4 6 6 6 5 5 6 4 2 2 1 1 1 1 1 1 1 1 1 1 2 1 1 1 1 1 1 2 3 2 3 3 4 3 3 4 3 3 4
2 3 5 5 3 2 7 11 12 7 4 6 6 6 6 6 5 3 2 1 0 0 0 1 0 0 1 1 1 1 1 1 1 1 1 1 1 2 3 3 3 3 3 4 5 4 4 3 3
2 3 5 5 2 3 6 11 9 6 5 6 6 5 5 4 4 3 2 1 1 1 1 1 1 1 1 1 1 1 2 1 1 1 1 1 1 2 3 4 3 3 3 4 4 4 3 2 2
5 5 5 4 4 2 5 9 4 3 2 3 3 3 3 3 4 3 2 1 1 1 1 1 1 1 1 2 2 2 2 2 1 1 1 1 1 2 2 3 3 3 3 4 5 4 4 3 1
6 5 5 3 2 4 2 6 7 3 4 4 4 3 3 3 3 2 2 2 2 1 1 1 1 1 1 2 3 3 2 2 2 1 1 1 1 2 3 3 3 4 3 4 5 4 3 4 3
5 1 2 2 2 3 1 3 10 3 4 6 4 3 4 3 3 2 2 2 1 1 0 0 1 1 1 2 3 3 2 2 2 2 2 1 1 2 3 3 3 4 3 4 4 4 4 3 3
2 2 2 2 2 4 4 4 9 4 5 5 4 3 3 3 3 2 2 1 1 1 0 0 1 1 1 1 2 3 3 3 3 3 2 2 1 1 2 2 2 3 3 4 4 4 4 3 3
2 3 3 4 2 6 2 4 11 6 5 4 4 4 3 3 2 2 2 1 1 1 1 0 1 1 1 2 1 2 3 3 4 3 3 2 1 1 1 2 2 2 3 4 4 4 3 4 4
3 5 5 4 5 5 2 7 9 4 3 3 3 3 2 2 2 2 2 2 1 1 1 1 1 1 1 1 1 1 1 2 2 2 2 3 2 2 2 2 2 2 3 3 3 3 3 3 3
4 4 3 4 1 4 6 7 9 2 3 2 2 2 2 3 3 2 2 2 2 2 2 2 1 1 1 2 1 1 1 1 2 2 2 2 1 2 3 3 3 2 2 3 3 3 3 3 3
3 5 3 3 3 5 6 6 6 4 4 3 3 3 4 3 3 3 2 2 2 2 2 2 2 2 2 2 2 2 2 2 2 2 2 2 2 2 3 3 3 3 3 3 3 3 3 3 2
3 3 3 3 3 4 5 8 6 6 4 4 4 4 4 4 4 3 2 2 2 1 1 2 2 2 2 2 2 2 2 1 1 2 2 2 2 2 3 3 3 3 3 3 3 2 3 4 3
4 5 5 3 4 4 4 10 4 3 3 3 4 4 4 4 4 3 2 2 1 1 2 2 2 2 2 2 2 2 2 2 2 1 1 1 2 2 2 3 3 3 3 3 4 3 3 4 4
Wind_Direction
360 31 61 55 56 53 214 248 242 282 262 269 259 160 149 155 169 223 290 346 348 212 205 189 152 153 149 141 134 132 124 121 127 134 137 140 145 149 147 143 139 135 131 129 124 120 119 118 118
15 45 53 58 84 92 262 251 244 244 259 323 13 79 96 294 337 337 329 319 333 186 182 191 158 148 148 149 150 145 145 135 136 145 148 147 147 148 152 148 144 139 136 134 129 123 121 119 120
59 52 75 72 104 176 224 244 235 280 307 18 20 40 95 312 328 307 294 306 11 54 20 258 142 144 145 154 158 166 168 157 146 155 164 158 155 155 152 151 149 146 141 137 132 127 126 124 123
66 47 56 72 132 219 226 268 255 310 346 21 55 33 344 331 297 284 321 1 37 6 357 329 78 141 149 155 167 177 179 172 160 161 171 169 164 159 154 148 149 146 142 139 137 133 130 129 129
58 72 66 51 259 259 258 284 267 331 333 347 39 91 300 317 335 352 9 18 46 3 354 340 38 105 156 164 171 186 185 177 172 165 177 181 170 160 154 147 146 146 144 143 141 139 136 133 132
58 67 88 206 261 283 283 287 38 19 326 336 35 179 266 319 359 348 4 0 19 29 7 10 14 6 242 190 203 208 197 182 178 175 172 176 175 163 160 155 147 147 147 148 144 140 138 133 131
98 97 140 189 259 292 287 310 117 85 336 285 203 182 287 316 317 333 4 5 359 20 27 6 0 355 354 312 273 248 220 199 185 178 170 154 152 161 164 158 155 153 153 151 144 139 140 137 131
111 103 118 204 220 261 284 332 233 180 252 281 150 174 261 281 307 356 6 9 351 353 6 3 10 350 332 290 301 274 244 216 194 174 149 144 151 161 166 158 154 153 153 150 145 138 136 134 131
81 82 178 214 202 243 263 340 319 281 244 301 234 217 248 284 24 29 1 346 331 333 331 333 349 343 336 328 338 326 280 216 174 167 141 124 140 151 156 157 150 143 141 143 143 136 129 123 124
80 130 216 217 193 210 242 220 256 312 302 283 292 291 298 290 276 271 273 276 280 288 289 276 261 260 281 294 357 336 327 230 158 148 138 118 118 125 122 128 137 137 135 131 128 124 121 107 105
112 177 220 255 222 212 239 264 230 191 253 235 241 264 274 261 260 249 249 246 248 256 275 278 266 243 219 244 264 352 331 320 151 142 138 122 111 116 110 113 117 118 115 108 106 96 92 102 108
123 235 210 247 218 214 233 257 259 217 238 242 235 241 253 253 255 246 243 251 251 254 259 263 257 225 213 192 189 179 206 257 146 141 142 136 133 131 127 125 120 114 113 109 103 99 93 98 105
139 271 266 251 263 243 245 248 254 260 260 264 261 254 248 252 263 260 252 253 253 250 249 247 244 222 210 179 189 176 196 192 202 135 149 148 149 157 140 136 130 126 119 122 120 115 112 108 106
221 281 294 285 256 245 231 267 253 268 267 258 256 257 252 251 259 269 274 258 251 249 247 241 237 222 203 183 179 185 178 185 181 162 150 152 155 161 147 143 140 135 130 130 126 129 125 116 112
41 344 325 294 251 259 245 301 243 261 298 281 278 277 276 269 263 253 254 258 251 246 242 229 229 217 206 188 185 182 174 174 154 123 157 152 141 157 155 151 148 144 133 123 118 114 112 114 109
41 24 320 298 262 242 127 276 273 274 272 285 286 286 286 282 267 262 260 262 266 253 244 236 224 207 212 203 181 169 174 164 138 122 135 143 141 141 155 153 153 144 133 127 128 125 114 115 119
29 305 272 299 278 177 190 261 280 306 270 277 282 282 283 292 292 281 274 262 263 256 252 240 216 206 204 196 167 165 161 149 140 143 127 130 145 142 148 156 149 145 136 132 137 128 128 129 121
239 240 262 268 282 201 242 263 281 289 259 265 274 281 284 287 281 283 282 274 275 267 255 255 225 199 159 117 108 126 124 128 125 133 129 134 152 146 136 136 144 146 138 136 133 132 118 128 127
187 216 258 263 266 259 255 270 281 286 266 268 274 276 279 282 284 286 278 271 309 351 198 222 219 153 122 123 141 151 159 152 130 127 126 132 154 158 141 140 144 149 150 151 142 130 123 114 123
223 256 270 284 279 251 280 280 277 267 250 248 256 267 275 293 311 310 310 310 270 258 230 199 198 163 152 159 156 152 145 149 143 126 107 119 140 157 142 146 155 159 145 142 144 138 130 131 144
234 226 245 266 319 319 316 302 288 285 274 284 272 268 270 266 281 293 308 305 308 279 251 223 202 184 174 146 121 108 94 80 83 101 106 112 144 146 136 149 151 156 159 162 159 159 148 152 163
252 232 232 255 306 298 6 299 291 285 304 292 285 289 279 282 285 288 297 304 285 273 263 229 203 180 162 149 147 152 153 161 172 159 140 126 134 136 127 146 160 157 158 165 168 163 152 152 161
230 242 212 223 216 289 258 243 283 306 290 288 288 281 278 280 284 284 285 279 278 269 205 202 162 156 157 159 164 162 160 158 136 128 125 119 100 121 120 140 160 161 159 168 169 159 155 157 162
183 63 67 68 94 270 223 199 276 248 240 277 291 284 280 286 296 299 308 329 349 22 49 108 148 161 150 149 156 161 159 156 148 148 149 144 141 108 111 128 147 156 158 169 173 166 164 166 162
108 93 15 345 322 253 208 216 252 248 236 242 268 283 288 287 289 302 310 317 330 311 295 5 158 181 149 143 143 155 155 164 174 174 170 165 166 154 163 142 150 152 163 166 165 162 169 171 168
193 165 173 219 242 280 264 237 254 256 263 265 266 278 294 292 289 281 262 257 250 239 237 209 196 187 159 150 150 133 135 161 175 187 175 180 187 190 179 160 159 158 162 160 159 160 165 168 172
165 202 179 155 223 267 265 276 296 281 303 301 299 302 284 282 288 285 276 254 242 231 223 205 200 193 172 166 147 139 150 169 174 180 172 179 178 178 166 162 158 161 160 154 157 166 166 163 173
166 154 124 160 206 257 277 266 253 271 277 290 284 277 275 283 285 284 275 257 244 232 220 188 191 194 184 167 165 153 175 188 177 174 188 188 183 173 164 162 159 162 164 159 161 163 158 153 163
156 173 175 176 194 200 264 267 229 226 236 250 264 267 263 262 263 263 269 263 249 237 213 189 186 181 180 181 172 166 171 170 174 198 205 192 180 177 174 176 170 171 171 166 167 172 162 161 165
193 185 158 183 235 211 231 267 270 232 258 263 268 275 273 264 262 263 264 256 239 228 217 205 196 192 195 186 177 184 177 169 186 210 217 196 192 187 179 175 173 177 180 176 179 187 184 179 179